PulseSat

PulseSat

GORIZONT 12 [-]

Last updated on Oct. 22, 2018, 12:08 a.m. UTC

1 16769U 86044A   18294.13903490  .00000099  00000-0  00000-0 0  9992
2 16769  14.0928 344.4199 0005684 279.2065 222.9656  1.00316552119223
UTC
Height (km)
Latitude
Longitude
Inclination
Orbital Period

Next 30 passes for location: Hong Kong

Rise time Rise Azimuth (degrees) Set time Set Azimuth (degrees) Duration Max altitude (degrees)

No matching passes for this satellites

PulseSat

PulseSat is the new satellites software and hardware trackering solution by Pulsely.
Satellite Two Line Element Set source: US Air Force Space Command

Download PulseSat for iOS
© 2017 Pulsely Limited